CW2399 Weather Reports


Display with metric or nautical units.
time (UTC)temp
F
wind
direction
speed
MPH
gust
MPH
rain 1hr
in
rain 24hr
in
rain mn
in
humidity
%
barometer
mb
20260906232901 72 217 2.0 8.0 0.00 0.00 0.00 42 1006.4
20260906232401 72 235 0.0 5.0 0.00 0.00 0.00 42 1006.3
20260906231901 72 190 0.0 2.0 0.00 0.00 0.00 42 1006.3
20260906225901 73 218 3.0 10.0 0.00 0.00 0.00 42 1006.2
20260906224901 73 185 1.0 5.0 0.00 0.00 0.00 41 1006.2
20260906224402 73 203 2.0 9.0 0.00 0.00 0.00 40 1006.4
20260906223901 73 204 5.0 12.0 0.00 0.00 0.00 39 1006.5
20260906222903 74 216 3.0 16.0 0.00 0.00 0.00 38 1006.6
20260906222401 74 214 7.0 20.0 0.00 0.00 0.00 37 1006.5
20260906221901 75 238 7.0 18.0 0.00 0.00 0.00 36 1006.5
20260906221401 75 229 4.0 18.0 0.00 0.00 0.00 37 1006.6
20260906220902 76 206 4.0 18.0 0.00 0.00 0.00 35 1006.7
20260906220402 76 228 0.0 6.0 0.00 0.00 0.00 35 1006.8
20260906215401 76 208 1.0 9.0 0.00 0.00 0.00 35 1006.5
20260906214901 76 225 2.0 15.0 0.00 0.00 0.00 35 1006.4
20260906213901 76 207 1.0 9.0 0.00 0.00 0.00 36 1006.1
20260906213402 76 197 4.0 12.0 0.00 0.00 0.00 36 1006.0
20260906212401 76 219 0.0 5.0 0.00 0.00 0.00 37 1006.0
20260906211902 76 230 3.0 10.0 0.00 0.00 0.00 36 1006.1
20260906211402 76 223 8.0 18.0 0.00 0.00 0.00 35 1006.0
20260906210902 76 221 10.0 20.0 0.00 0.00 0.00 33 1006.0
20260906210402 77 210 3.0 15.0 0.00 0.00 0.00 33 1005.9
20260906205903 77 229 5.0 16.0 0.00 0.00 0.00 33 1005.9
20260906205402 77 229 2.0 17.0 0.00 0.00 0.00 33 1005.8
20260906204902 77 221 8.0 15.0 0.00 0.00 0.00 33 1005.8
20260906203902 77 218 4.0 18.0 0.00 0.00 0.00 33 1006.1
20260906201902 78 227 5.0 12.0 0.00 0.00 0.00 32 1006.2
20260906201402 78 229 6.0 15.0 0.00 0.00 0.00 32 1006.3
20260906200901 78 221 2.0 14.0 0.00 0.00 0.00 32 1006.4
20260906200402 78 236 4.0 12.0 0.00 0.00 0.00 31 1006.4
20260906195902 78 220 5.0 14.0 0.00 0.00 0.00 31 1006.5
20260906195401 78 219 2.0 9.0 0.00 0.00 0.00 31 1006.5
20260906194901 78 169 1.0 9.0 0.00 0.00 0.00 30 1006.7
20260906193902 78 213 1.0 8.0 0.00 0.00 0.00 29 1006.8
20260906193402 79 224 4.0 12.0 0.00 0.00 0.00 28 1007.0
20260906192901 79 211 2.0 9.0 0.00 0.00 0.00 28 1007.0
20260906192401 79 221 2.0 7.0 0.00 0.00 0.00 28 1007.0
20260906191902 78 232 0.0 7.0 0.00 0.00 0.00 28 1007.1
20260906191402 79 216 0.0 2.0 0.00 0.00 0.00 28 1007.2
20260906190902 79 228 1.0 7.0 0.00 0.00 0.00 28 1007.2
20260906190402 78 218 5.0 9.0 0.00 0.00 0.00 28 1007.3
20260906185902 79 227 1.0 7.0 0.00 0.00 0.00 29 1007.4
20260906184902 79 233 1.0 12.0 0.00 0.00 0.00 29 1007.6
20260906184401 79 231 3.0 14.0 0.00 0.00 0.00 29 1007.8
20260906183902 79 231 5.0 16.0 0.00 0.00 0.00 28 1007.8
20260906183402 79 219 5.0 13.0 0.00 0.00 0.00 28 1008.1
20260906182902 78 237 4.0 12.0 0.00 0.00 0.00 29 1008.0
20260906182402 78 224 3.0 9.0 0.00 0.00 0.00 30 1007.9
20260906181902 79 214 6.0 12.0 0.00 0.00 0.00 27 1008.0
20260906181402 79 209 6.0 8.0 0.00 0.00 0.00 27 1008.1
20260906180901 79 232 4.0 9.0 0.00 0.00 0.00 26 1008.1
20260906180402 79 223 3.0 8.0 0.00 0.00 0.00 26 1008.1
20260906175401 78 326 0.0 3.0 0.00 0.00 0.00 28 1008.3
20260906174902 79 283 1.0 3.0 0.00 0.00 0.00 28 1008.4
20260906174402 78 260 1.0 6.0 0.00 0.00 0.00 29 1008.6
20260906173402 79 210 0.0 3.0 0.00 0.00 0.00 27 1008.8
20260906171902 76 225 0.0 0.0 0.00 0.00 0.00 29 1008.8
20260906171402 75 225 1.0 5.0 0.00 0.00 0.00 30 1008.8
20260906170402 75 246 0.0 3.0 0.00 0.00 0.00 29 1009.1
20260906165901 75 249 0.0 2.0 0.00 0.00 0.00 30 1009.0
20260906165401 75 250 0.0 0.0 0.00 0.00 0.00 32 1009.0
20260906164902 75 250 0.0 0.0 0.00 0.00 0.00 33 1008.8
20260906164402 74 250 0.0 0.0 0.00 0.00 0.00 33 1009.0
20260906163902 74 252 0.0 1.0 0.00 0.00 0.00 34 1008.8
20260906163402 73 125 0.0 0.0 0.00 0.00 0.00 32 1008.8
20260906162901 73 125 0.0 0.0 0.00 0.00 0.00 34 1009.0
20260906162402 72 125 0.0 0.0 0.00 0.00 0.00 35 1009.0
20260906161902 71 125 0.0 0.0 0.00 0.00 0.00 36 1009.0
20260906161402 70 125 0.0 0.0 0.00 0.00 0.00 36 1008.9
20260906160902 70 125 0.0 0.0 0.00 0.00 0.00 37 1008.9
20260906160402 71 125 0.0 0.0 0.00 0.00 0.00 36 1008.9
20260906155902 71 125 0.0 0.0 0.00 0.00 0.00 35 1009.1
20260906155402 72 125 0.0 0.0 0.00 0.00 0.00 36 1009.3
20260906154902 71 125 0.0 0.0 0.00 0.00 0.00 36 1009.4
20260906153902 70 125 0.0 0.0 0.00 0.00 0.00 38 1009.5
20260906152902 69 125 0.0 0.0 0.00 0.00 0.00 38 1009.6
20260906152402 68 125 0.0 0.0 0.00 0.00 0.00 40 1009.6
20260906151902 67 125 0.0 0.0 0.00 0.00 0.00 40 1009.6
20260906151402 66 125 0.0 0.0 0.00 0.00 0.00 42 1009.5
20260906150902 65 125 0.0 0.0 0.00 0.00 0.00 43 1009.5
20260906150402 64 125 0.0 0.0 0.00 0.00 0.00 43 1009.6
20260906145902 64 125 0.0 0.0 0.00 0.00 0.00 43 1009.6
20260906144402 62 125 0.0 0.0 0.00 0.00 0.00 45 1009.5
20260906143902 62 125 0.0 0.0 0.00 0.00 0.00 47 1009.6
20260906143401 61 125 0.0 0.0 0.00 0.00 0.00 50 1009.7
20260906142402 59 125 0.0 0.0 0.00 0.00 0.00 53 1009.7
20260906141402 57 125 0.0 0.0 0.00 0.00 0.00 55 1009.5
20260906140902 57 125 0.0 0.0 0.00 0.00 0.00 56 1009.4
20260906135902 55 125 0.0 0.0 0.00 0.00 0.00 56 1009.1
20260906135402 55 125 0.0 0.0 0.00 0.00 0.00 56 1009.0
20260906134902 56 0 0.0 0.0 0.00 0.00 0.00 50 1009.0
20260906134402 56 0 0.0 0.0 0.00 0.00 0.00 50 1008.9
20260906133903 56 0 0.0 0.0 0.00 0.00 0.00 50 1008.9
20260906133402 56 0 0.0 0.0 0.00 0.00 0.00 50 1008.8
20260906132902 56 0 0.0 0.0 0.00 0.00 0.00 50 1008.8
20260906132402 56 0 0.0 0.0 0.00 0.00 0.00 50 1008.7
20260906131903 56 0 0.0 0.0 0.00 0.00 0.00 50 1008.6
20260906131402 56 0 0.0 0.0 0.00 0.00 0.00 50 1008.5
20260906130902 56 0 0.0 0.0 0.00 0.00 0.00 50 1008.5
20260906130402 56 0 0.0 0.0 0.00 0.00 0.00 50 1008.5
20260906125402 56 0 0.0 0.0 0.00 0.00 0.00 50 1008.6
20260906124903 56 0 0.0 0.0 0.00 0.00 0.00 50 1008.6
20260906124402 56 0 0.0 0.0 0.00 0.00 0.00 50 1008.5
20260906123902 56 0 0.0 0.0 0.00 0.00 0.00 50 1008.4
20260906123402 56 0 0.0 0.0 0.00 0.00 0.00 50 1008.5
20260906122902 56 0 0.0 0.0 0.00 0.00 0.00 50 1008.4
20260906122403 56 0 0.0 0.0 0.00 0.00 0.00 50 1008.4
20260906121902 56 0 0.0 0.0 0.00 0.00 0.00 50 1008.4
20260906121403 56 0 0.0 0.0 0.00 0.00 0.00 50 1008.4
20260906120902 56 0 0.0 0.0 0.00 0.00 0.00 50 1008.4
20260906120403 56 0 0.0 0.0 0.00 0.00 0.00 50 1008.5
20260906115402 56 0 0.0 0.0 0.00 0.00 0.00 50 1008.6
20260906114902 56 0 0.0 0.0 0.00 0.00 0.00 50 1008.5
20260906114402 56 0 0.0 0.0 0.00 0.00 0.00 50 1008.6
20260906113403 56 0 0.0 0.0 0.00 0.00 0.00 50 1008.6
20260906112902 56 0 0.0 0.0 0.00 0.00 0.00 50 1008.6
20260906111902 56 0 0.0 0.0 0.00 0.00 0.00 50 1008.7
20260906111402 56 0 0.0 0.0 0.00 0.00 0.00 50 1008.7
20260906110902 56 0 0.0 0.0 0.00 0.00 0.00 50 1008.8
20260906110403 56 0 0.0 0.0 0.00 0.00 0.00 50 1008.9
20260906105902 56 0 0.0 0.0 0.00 0.00 0.00 50 1009.0
20260906105403 56 0 0.0 0.0 0.00 0.00 0.00 50 1008.9
20260906104902 56 5 0.0 0.0 0.00 0.00 0.00 50 1009.0
20260906104403 56 125 0.0 0.0 0.00 0.00 0.00 50 1009.1
20260906103902 56 125 0.0 0.0 0.00 0.00 0.00 50 1009.0
20260906103403 56 125 0.0 0.0 0.00 0.00 0.00 50 1009.0
20260906102902 57 125 0.0 0.0 0.00 0.00 0.00 50 1009.0
20260906102403 57 125 0.0 0.0 0.00 0.00 0.00 49 1009.0
20260906101403 57 125 0.0 0.0 0.00 0.00 0.00 48 1008.8
20260906100902 57 125 0.0 0.0 0.00 0.00 0.00 48 1008.9
20260906100403 57 125 0.0 0.0 0.00 0.00 0.00 48 1008.9
20260906095903 58 125 0.0 0.0 0.00 0.00 0.00 46 1008.8
20260906095402 58 125 0.0 0.0 0.00 0.00 0.00 47 1008.8
20260906094903 58 125 0.0 0.0 0.00 0.00 0.00 46 1008.9
20260906094402 58 125 0.0 0.0 0.00 0.00 0.00 47 1008.9
20260906093903 58 125 0.0 0.0 0.00 0.00 0.00 47 1008.8
20260906093402 58 125 0.0 0.0 0.00 0.00 0.00 46 1008.7
20260906092903 58 125 0.0 0.0 0.00 0.00 0.00 46 1008.8
20260906092403 58 125 0.0 0.0 0.00 0.00 0.00 46 1008.8
20260906091902 58 125 0.0 0.0 0.00 0.00 0.00 45 1008.8
20260906090403 59 125 0.0 0.0 0.00 0.00 0.00 44 1008.6
20260906084903 59 125 0.0 0.0 0.00 0.00 0.00 44 1008.6
20260906084403 59 125 0.0 0.0 0.00 0.00 0.00 44 1008.6
20260906082902 59 125 0.0 0.0 0.00 0.00 0.00 43 1008.7
20260906082402 59 125 0.0 0.0 0.00 0.00 0.00 42 1008.7
20260906080903 60 125 0.0 0.0 0.00 0.00 0.00 42 1008.9
20260906080403 60 125 0.0 0.0 0.00 0.00 0.00 41 1008.8
20260906075903 60 125 0.0 0.0 0.00 0.00 0.00 41 1008.9
20260906075402 60 125 0.0 0.0 0.00 0.00 0.00 40 1008.8
20260906074903 60 125 0.0 0.0 0.00 0.00 0.00 40 1008.8
20260906074403 60 125 0.0 0.0 0.00 0.00 0.00 40 1008.9
20260906073903 60 125 0.0 0.0 0.00 0.00 0.00 40 1008.8
20260906072403 61 125 0.0 0.0 0.00 0.00 0.00 38 1008.9
20260906071903 61 125 0.0 0.0 0.00 0.00 0.00 38 1008.9
20260906071403 61 125 0.0 0.0 0.00 0.00 0.00 38 1008.8
20260906070903 61 125 0.0 0.0 0.00 0.00 0.00 38 1008.8
20260906070403 61 125 0.0 0.0 0.00 0.00 0.00 38 1008.8
20260906065903 61 125 0.0 0.0 0.00 0.00 0.00 38 1008.8
20260906065403 61 125 0.0 0.0 0.00 0.00 0.00 38 1008.8
20260906064903 61 125 0.0 0.0 0.00 0.00 0.00 39 1008.9
20260906063903 61 125 0.0 0.0 0.00 0.00 0.00 38 1008.9
20260906063402 61 125 0.0 0.0 0.00 0.00 0.00 38 1008.8
20260906062903 61 125 0.0 0.0 0.00 0.00 0.00 38 1008.7
20260906061903 61 125 0.0 0.0 0.00 0.00 0.00 38 1008.6
20260906061403 61 125 0.0 0.0 0.00 0.00 0.00 38 1008.5
20260906060403 61 125 0.0 0.0 0.00 0.00 0.00 38 1008.4
20260906055903 62 125 0.0 0.0 0.00 0.00 0.00 37 1008.3
20260906055403 62 125 0.0 0.0 0.00 0.00 0.00 36 1008.2
20260906054402 63 125 0.0 0.0 0.00 0.00 0.00 36 1008.2
20260906052903 63 125 0.0 0.0 0.00 0.00 0.00 35 1008.3
20260906052403 63 125 0.0 0.0 0.00 0.00 0.00 35 1008.3
20260906051903 63 125 0.0 0.0 0.00 0.00 0.00 35 1008.3
20260906051403 63 125 0.0 0.0 0.00 0.00 0.00 35 1008.3
20260906050903 64 125 0.0 0.0 0.00 0.00 0.00 35 1008.3
20260906050403 64 125 0.0 0.0 0.00 0.00 0.00 35 1008.3
20260906045403 64 125 0.0 0.0 0.00 0.00 0.00 34 1008.2
20260906044903 64 125 0.0 0.0 0.00 0.00 0.00 35 1008.2
20260906044403 65 125 0.0 0.0 0.00 0.00 0.00 34 1008.2
20260906043904 65 125 0.0 0.0 0.00 0.00 0.00 33 1008.1
20260906042903 66 125 0.0 0.0 0.00 0.00 0.00 31 1008.0
20260906042403 66 125 0.0 0.0 0.00 0.00 0.00 31 1008.0
20260906041904 67 125 0.0 0.0 0.00 0.00 0.00 31 1008.0
20260906040904 67 125 0.0 0.0 0.00 0.00 0.00 30 1007.9
20260906040403 68 125 0.0 0.0 0.00 0.00 0.00 29 1007.9
20260906035903 68 125 0.0 0.0 0.00 0.00 0.00 29 1007.9
20260906035403 68 125 0.0 1.0 0.00 0.00 0.00 29 1007.8
20260906033903 68 125 0.0 0.0 0.00 0.00 0.00 30 1007.5
20260906033403 68 125 0.0 0.0 0.00 0.00 0.00 30 1007.5
20260906032904 68 125 0.0 0.0 0.00 0.00 0.00 30 1007.4
20260906032403 68 125 0.0 0.0 0.00 0.00 0.00 29 1007.3
20260906031903 68 125 0.0 0.0 0.00 0.00 0.00 29 1007.3
20260906031403 69 125 0.0 0.0 0.00 0.00 0.00 29 1007.2
20260906030904 69 125 0.0 0.0 0.00 0.00 0.00 29 1007.1
20260906030403 69 125 0.0 0.0 0.00 0.00 0.00 28 1007.0
20260906025904 70 125 0.0 0.0 0.00 0.00 0.00 28 1006.8
20260906025403 70 125 0.0 0.0 0.00 0.00 0.00 28 1006.7
20260906024903 71 125 0.0 0.0 0.00 0.00 0.00 27 1006.6
20260906024403 71 125 0.0 0.0 0.00 0.00 0.00 26 1006.6
20260906023904 72 125 0.0 0.0 0.00 0.00 0.00 26 1006.5
20260906022904 73 125 0.0 0.0 0.00 0.00 0.00 25 1006.3
20260906022403 73 125 0.0 3.0 0.00 0.00 0.00 24 1006.3
20260906021403 75 271 0.0 0.0 0.00 0.00 0.00 24 1006.1
20260906020904 76 271 0.0 0.0 0.00 0.00 0.00 24 1006.0
20260906020403 76 271 0.0 0.0 0.00 0.00 0.00 22 1006.0
20260906015403 77 271 0.0 0.0 0.00 0.00 0.00 22 1005.9
20260906014904 77 271 0.0 0.0 0.00 0.00 0.00 21 1005.9
20260906014403 78 271 0.0 0.0 0.00 0.00 0.00 21 1005.8
20260906013904 79 271 0.0 0.0 0.00 0.00 0.00 21 1005.7
20260906013403 80 271 0.0 0.0 0.00 0.00 0.00 22 1005.7
20260906012903 80 271 0.0 0.0 0.00 0.00 0.00 21 1005.6
20260906012403 80 271 0.0 3.0 0.00 0.00 0.00 21 1005.6
20260906011903 81 283 0.0 0.0 0.00 0.00 0.00 21 1005.6
20260906011404 81 251 0.0 6.0 0.00 0.00 0.00 21 1005.6
20260906010901 82 243 1.0 6.0 0.00 0.00 0.00 21 1005.5
20260906005901 82 251 2.0 8.0 0.00 0.00 0.00 20 1005.5
20260906005400 83 263 2.0 7.0 0.00 0.00 0.00 19 1005.4
20260906004901 83 246 2.0 7.0 0.00 0.00 0.00 17 1005.3
20260906004401 83 229 2.0 9.0 0.00 0.00 0.00 18 1005.3
20260906003901 83 231 2.0 9.0 0.00 0.00 0.00 17 1005.3
20260906003401 83 219 4.0 13.0 0.00 0.00 0.00 17 1005.4
20260906001901 84 0 0.0 0.0 0.00 0.00 0.00 18 1005.3
20260906000901 84 0 0.0 2.0 0.00 0.00 0.00 18 1005.4
20260906000403 84 105 2.0 2.0 0.00 0.00 0.00 18 1005.5
20260905235901 84 105 2.0 3.0 0.00 0.00 0.00 18 1005.5
20260905235401 84 105 1.0 3.0 0.00 0.00 0.00 18 1005.6
20260905234401 84 212 2.0 12.0 0.00 0.00 0.00 18 1005.5
20260905233902 84 217 6.0 18.0 0.00 0.00 0.00 18 1005.4